Theta_e
312 312 312 311 312 312 312 313 313 312 312 312 312 312 312 312 311 311 312 312 311 310 310 311 310 310 311 312 314 314 314 307 304 301 299 302 308 314 316 318 318 325 323 318 313 304 299 298 300 302 298 296 295 295 296 300 300 296 291 287 286 287 288 290 291 291 290 292 294 296 296 295 294 295 299 306 320 323 326 329 331 336 335 336 336 338 336 335
312 312 311 311 311 311 311 311 311 312 312 312 311 312 312 312 312 311 311 311 311 311 311 310 310 310 311 311 313 313 310 305 300 300 299 308 314 316 318 318 320 321 321 310 308 304 300 297 298 299 296 294 298 295 299 296 301 295 288 287 289 289 292 293 293 292 292 294 295 296 295 297 296 297 299 298 315 321 322 326 329 329 333 335 336 335 334 334
311 311 311 310 310 310 310 310 310 310 310 311 311 311 311 311 311 311 311 311 311 311 312 311 311 310 311 311 312 313 307 301 300 296 301 323 324 323 321 320 320 322 314 307 307 305 300 297 297 300 295 294 295 295 298 296 300 296 289 288 291 291 293 293 295 296 295 296 295 296 295 296 297 298 300 299 299 315 317 321 323 327 328 331 332 333 333 332
311 311 311 310 310 310 310 309 309 309 309 309 309 310 310 310 311 311 311 311 311 311 312 311 310 311 311 311 312 310 304 299 292 297 313 322 321 320 321 326 323 319 316 313 310 305 303 302 297 297 296 294 294 297 295 297 296 295 294 290 291 291 291 294 295 295 296 296 296 295 296 295 298 297 300 298 297 304 313 321 324 327 330 331 332 332 332 331
311 310 310 310 310 310 311 311 311 311 310 309 309 309 310 310 310 310 310 311 311 311 311 311 310 310 311 310 311 309 301 285 290 304 311 320 319 319 319 323 327 316 313 309 303 302 299 296 296 295 294 290 293 295 294 296 299 295 295 296 291 292 294 296 295 297 296 297 295 294 295 296 298 299 298 297 295 292 297 310 324 332 333 332 332 332 332 330
310 310 310 310 310 310 311 311 311 311 311 311 309 309 309 310 309 310 310 311 311 311 311 310 310 309 310 310 308 305 294 279 296 300 315 319 318 318 318 321 325 313 311 309 300 298 297 296 295 292 291 291 292 292 291 298 299 293 295 295 295 295 293 294 296 296 296 296 296 294 295 298 297 297 296 297 296 296 299 302 331 335 335 335 335 334 332 330
310 310 310 310 310 311 311 311 311 311 311 311 311 310 310 309 309 310 310 311 311 311 311 311 309 310 309 310 304 301 294 294 299 303 315 317 316 315 317 319 324 306 302 301 299 298 296 294 293 290 291 290 291 292 295 296 298 295 292 295 295 295 296 297 298 297 295 295 296 296 298 297 295 295 297 297 298 297 301 315 336 336 337 336 333 334 332 331
310 310 310 310 310 310 310 310 310 310 311 311 311 311 310 310 310 310 310 309 310 310 311 311 310 309 309 303 296 294 294 294 301 305 314 315 309 309 311 308 308 305 303 299 297 296 294 292 291 293 291 290 289 293 295 294 295 294 294 295 295 295 295 296 297 297 296 295 296 297 296 296 296 297 297 299 300 307 331 336 336 336 336 334 333 333 333 331
309 309 310 310 310 310 310 310 310 310 310 310 310 310 311 310 309 309 309 309 309 309 310 310 309 309 309 302 295 290 290 300 304 305 308 305 305 304 304 303 304 303 301 301 300 297 296 293 292 294 290 291 294 293 293 293 291 294 293 296 296 296 296 295 296 296 297 297 298 297 296 295 297 299 297 300 300 325 334 335 335 335 334 333 333 333 330 328
309 309 309 310 310 310 309 309 310 310 310 310 310 310 310 310 310 309 309 309 309 308 309 310 310 309 303 297 294 285 293 303 304 306 304 303 302 301 302 303 303 301 300 300 300 297 296 293 295 295 296 293 295 292 293 293 290 293 295 295 295 296 296 297 295 296 296 297 297 296 295 296 298 298 292 295 300 333 333 333 334 334 332 332 331 329 328 328
309 309 309 309 310 309 309 309 309 309 309 310 309 309 309 309 310 309 308 308 308 308 308 309 309 307 299 297 287 283 299 301 303 301 301 300 299 298 299 301 303 301 300 300 299 299 299 297 296 298 295 292 293 291 292 291 295 296 294 294 294 295 296 296 295 295 295 296 296 296 296 296 295 296 294 297 319 332 331 332 333 332 331 329 328 327 327 328
309 309 309 309 309 309 309 309 309 309 310 309 309 309 309 309 309 309 309 308 308 307 307 308 309 306 302 297 292 290 302 301 301 301 300 300 298 299 301 302 303 301 300 298 299 300 300 299 298 296 290 295 290 294 293 295 294 294 294 291 292 292 292 294 294 296 295 295 295 296 294 293 294 293 296 298 322 331 331 331 332 330 329 328 327 326 326 325
309 309 309 309 309 309 309 309 309 309 309 308 308 308 308 309 309 309 309 308 308 307 307 307 307 304 299 289 293 300 303 303 302 301 301 301 300 302 303 303 303 302 302 300 299 302 300 299 297 294 296 294 291 289 293 296 293 294 293 290 291 290 290 293 294 294 294 294 295 296 287 287 291 294 296 299 329 330 329 328 326 325 327 327 325 324 324 326
309 309 309 309 309 309 308 309 309 308 308 307 307 308 308 308 308 308 309 307 308 307 306 307 305 302 297 290 298 301 302 302 302 299 299 301 298 298 300 301 302 302 303 301 302 303 302 299 298 296 298 293 290 296 294 292 294 288 289 291 285 285 284 289 293 293 292 295 295 297 288 287 288 292 297 302 328 328 327 326 325 324 325 326 324 323 324 326
309 309 308 308 308 308 309 308 308 308 307 307 307 307 307 307 307 308 308 308 307 307 307 306 303 297 290 291 299 301 307 305 298 298 300 297 296 295 296 300 300 301 301 301 301 302 302 300 297 293 290 296 296 292 288 288 286 288 286 283 285 286 282 288 292 293 292 294 296 295 289 290 291 293 296 301 321 328 326 324 325 324 325 323 322 322 323 325
309 309 308 308 308 308 308 308 308 307 307 306 306 307 307 307 307 307 308 307 307 306 305 299 298 296 290 285 293 305 299 293 295 301 302 299 297 295 298 298 301 301 301 301 304 304 302 298 293 292 293 294 290 286 285 283 285 285 285 281 283 283 285 287 293 293 295 295 294 296 284 285 291 294 296 307 324 327 325 323 323 324 323 322 321 322 322 322
308 308 308 308 308 308 308 307 307 308 307 306 306 306 306 306 306 306 306 306 305 306 301 295 298 299 284 295 302 293 292 295 299 298 299 301 300 299 299 298 298 299 300 300 301 300 297 295 295 294 294 289 286 287 282 281 279 281 284 282 282 284 283 285 287 291 293 294 290 293 290 288 291 298 306 310 324 324 324 323 323 324 323 322 321 321 321 322
308 308 308 308 308 307 308 307 308 307 307 305 305 304 303 305 306 305 303 304 302 301 299 301 298 292 285 294 287 290 295 294 296 297 298 300 302 300 299 297 298 298 297 296 297 294 295 291 293 286 288 288 287 285 283 280 282 279 281 282 283 285 286 287 287 289 292 291 291 289 290 290 289 301 309 311 322 323 323 323 323 323 322 320 320 321 321 322
308 308 308 308 307 307 307 307 308 307 307 305 305 305 304 304 300 298 296 296 290 285 281 286 288 276 276 283 290 291 293 297 299 297 295 298 302 302 300 300 299 296 292 291 290 293 292 290 292 285 285 286 286 287 285 284 286 284 283 283 283 283 283 284 289 291 293 290 289 289 288 289 292 306 309 311 319 322 323 324 323 323 322 320 319 321 322 322
308 307 308 307 307 307 307 307 307 307 307 301 298 297 292 287 284 284 295 296 290 288 286 289 291 289 288 289 289 294 299 299 293 295 297 299 300 298 297 298 296 296 291 286 288 291 292 286 284 285 286 287 288 288 287 287 287 287 286 284 284 284 284 286 287 290 293 290 289 289 289 289 294 306 308 310 314 320 322 322 322 322 321 320 319 320 322 322
308 307 307 307 307 307 307 307 307 307 306 299 295 290 284 286 283 281 287 289 292 293 290 291 291 290 288 291 293 293 290 292 295 294 296 301 298 296 292 295 291 288 288 290 287 291 292 285 285 286 287 288 288 288 287 288 288 286 285 285 284 284 284 287 290 292 293 292 288 289 289 290 290 305 309 311 315 316 320 320 320 321 321 321 319 319 321 323
307 307 307 307 307 307 307 307 307 307 305 295 294 290 291 291 294 296 293 284 290 292 291 291 292 290 294 293 295 295 294 289 290 293 297 298 294 291 291 292 289 286 288 289 288 285 286 284 287 287 289 288 288 288 288 288 287 286 285 284 283 283 286 288 290 291 293 292 287 288 288 289 290 307 309 311 311 315 320 321 321 320 320 320 320 320 321 322
307 307 307 307 306 306 307 306 306 305 294 292 291 292 292 296 300 301 297 290 286 293 291 290 288 289 290 294 294 296 288 286 285 291 294 298 292 293 293 290 288 288 287 288 285 283 282 285 288 290 289 288 287 288 287 287 287 284 284 282 281 282 285 282 288 290 292 290 286 288 288 286 304 307 309 310 310 311 316 321 321 322 321 320 320 320 320 321
307 306 306 306 306 306 306 306 305 296 292 293 293 293 298 299 300 300 293 284 283 288 290 290 290 289 289 288 293 292 288 289 289 288 297 295 290 294 292 291 288 287 285 287 286 284 284 287 290 290 289 289 286 286 286 286 284 286 285 283 284 285 285 284 284 289 290 291 290 286 285 283 301 303 306 309 312 312 312 314 318 320 322 322 322 322 322 321
307 306 306 306 306 307 306 306 293 293 296 294 293 298 299 300 300 301 291 286 285 284 293 291 292 290 292 297 296 289 290 291 291 294 296 295 292 292 290 294 290 285 287 287 286 285 285 289 292 289 289 289 287 284 286 286 282 284 285 286 286 286 287 287 288 288 282 283 287 290 281 281 287 305 306 308 307 310 311 313 315 318 318 320 320 320 322 323
307 307 306 306 306 306 306 294 288 295 296 292 295 300 301 302 301 300 290 280 275 283 289 282 294 287 297 288 293 291 292 285 293 294 296 295 297 292 293 289 291 285 287 286 285 286 286 290 291 289 288 288 288 286 286 288 283 282 283 288 287 287 287 287 287 286 279 281 287 291 284 276 285 299 305 306 307 309 312 314 315 316 318 318 319 320 320 321
307 306 306 306 306 306 298 291 298 297 291 292 298 299 300 303 302 298 282 276 272 285 282 288 287 288 295 291 291 292 276 280 293 296 294 298 293 296 289 288 290 291 291 290 285 282 289 289 288 290 288 287 287 286 287 288 284 281 286 288 289 287 286 286 287 285 281 286 288 289 286 280 283 295 303 306 308 309 310 312 314 316 317 318 319 320 320 321
307 307 306 307 306 305 299 300 298 294 293 296 300 300 301 302 301 297 282 267 268 290 283 288 289 297 293 293 293 287 286 290 283 289 296 297 296 292 290 286 287 287 289 288 278 287 289 287 287 287 288 287 286 288 287 288 286 284 288 288 288 288 287 287 287 285 285 285 282 282 291 282 281 292 308 309 306 307 308 311 313 315 316 317 319 320 321 322
306 306 306 306 306 306 304 299 297 294 298 298 299 300 303 301 297 284 276 266 284 285 299 284 301 294 291 293 289 289 288 290 283 290 294 295 296 293 286 288 288 288 289 289 282 286 289 290 289 289 288 286 288 290 288 289 285 288 289 289 289 288 288 288 285 285 284 282 278 283 286 281 278 297 305 308 307 306 308 311 313 315 316 317 317 319 321 322
306 305 306 306 305 302 299 299 296 300 300 300 299 300 300 294 286 275 269 265 287 277 289 290 288 286 290 285 286 288 285 287 290 291 292 290 291 294 293 296 290 287 286 289 286 287 289 295 294 290 288 289 290 290 289 289 290 289 290 289 286 285 287 287 284 283 282 275 279 284 285 285 281 295 303 304 305 308 309 310 313 315 316 317 318 319 320 321
306 305 305 306 300 301 300 294 297 300 301 300 299 298 292 285 276 270 265 275 284 282 291 288 285 290 286 284 280 286 286 287 288 289 286 291 288 291 290 288 292 286 284 284 285 288 288 290 291 291 294 292 293 290 291 290 290 290 286 286 285 283 283 283 282 281 276 273 279 283 285 287 279 283 303 310 312 311 310 310 311 313 315 316 317 318 320 321
304 305 306 304 304 305 296 294 299 301 300 299 298 288 280 270 277 269 270 289 275 279 281 282 287 286 285 288 285 283 281 285 288 287 284 286 284 284 285 281 284 279 279 280 280 286 285 286 290 291 298 293 290 289 288 290 289 288 285 285 281 273 276 273 279 275 273 275 282 282 285 283 283 288 301 308 311 311 312 313 313 313 315 316 317 319 320 321
304 305 306 305 305 302 302 302 302 301 300 299 291 283 275 271 267 275 275 280 274 282 281 286 285 285 285 284 282 285 286 281 287 286 287 286 285 285 287 286 285 283 276 281 281 280 281 286 288 289 291 295 292 286 284 285 287 285 285 281 279 275 274 269 272 272 276 280 284 283 285 282 282 286 293 305 310 314 313 314 315 314 315 316 318 319 320 321
304 305 301 303 303 303 304 305 303 302 298 295 284 277 270 268 269 284 278 280 280 288 288 285 285 285 285 280 283 286 280 285 286 285 286 283 285 282 284 287 287 285 280 281 279 280 274 277 284 288 285 293 292 290 289 284 285 286 285 285 280 277 275 270 274 272 276 279 282 284 283 278 282 285 291 305 311 314 312 313 314 315 316 318 319 320 320 320
304 303 301 301 302 304 304 304 303 303 296 287 281 276 270 268 272 272 276 281 284 287 284 289 283 283 282 282 285 287 284 280 286 285 284 283 280 282 283 284 287 287 285 280 281 280 280 280 284 292 290 293 290 292 290 287 286 286 285 286 280 282 279 278 276 277 278 279 278 282 280 281 287 294 305 304 308 311 313 314 314 314 317 318 318 318 319 320
302 299 301 299 301 304 304 304 303 301 294 286 278 275 272 274 270 280 279 287 286 282 283 285 284 281 280 280 285 284 288 284 284 284 283 283 282 282 286 286 286 288 283 278 282 278 281 279 286 291 290 292 291 293 292 291 281 284 286 283 284 286 287 278 276 280 278 277 276 276 282 285 285 291 302 305 308 309 312 313 313 314 316 317 316 318 319 320
297 299 297 301 303 307 305 305 304 299 293 287 279 274 278 279 283 282 287 284 284 285 283 278 280 278 279 278 279 282 283 286 284 283 279 284 280 283 284 286 289 288 288 284 283 282 279 277 285 289 287 290 294 294 292 293 289 286 283 283 288 290 287 283 276 273 272 274 274 279 282 281 283 281 296 304 305 308 310 311 312 314 316 315 316 317 319 319
296 296 299 301 305 308 306 305 303 297 292 285 278 281 285 280 287 286 291 287 286 287 282 281 280 283 279 278 277 280 284 281 282 283 279 282 277 287 285 285 289 289 290 290 283 284 285 279 284 289 290 290 293 293 290 291 292 288 287 289 288 278 279 279 278 275 273 273 274 281 280 279 279 283 296 299 305 307 309 311 312 313 314 315 316 317 319 319
296 295 293 301 308 308 306 305 300 294 288 281 280 279 283 284 288 288 291 290 288 286 282 282 280 283 282 278 279 283 283 278 283 281 279 282 277 285 286 288 287 290 290 290 284 282 287 278 281 288 290 289 290 290 282 287 290 291 290 289 288 284 278 279 279 278 279 271 272 277 277 280 284 285 299 302 305 307 309 310 311 313 314 315 315 316 318 319
293 292 292 304 307 307 306 303 296 292 285 279 281 281 287 284 287 290 292 290 286 284 284 283 285 282 283 282 282 279 286 284 282 282 282 283 281 287 286 290 287 289 289 291 287 289 281 283 276 284 290 288 283 286 286 287 285 284 285 282 285 288 286 284 285 281 280 271 270 271 275 277 282 289 301 303 306 308 309 309 311 312 313 315 315 316 317 319
296 291 293 306 306 306 304 298 289 284 283 285 286 284 286 285 288 290 292 293 290 292 287 286 285 282 284 282 282 286 284 286 285 282 283 284 284 277 287 289 290 287 289 288 287 287 282 282 279 282 284 285 285 288 288 289 289 286 285 281 283 282 282 279 278 282 280 280 274 273 274 278 285 295 303 304 308 309 311 311 311 312 313 314 314 315 317 318
291 286 290 306 307 305 297 286 285 288 285 283 283 287 286 293 289 289 291 293 291 288 293 288 288 286 284 283 284 285 285 282 284 284 285 283 285 283 285 291 291 290 287 283 285 289 287 284 283 280 283 285 285 289 291 292 291 287 290 285 285 283 282 278 275 278 281 281 282 280 275 279 288 293 299 304 308 311 311 312 310 312 313 314 314 315 317 319
291 288 301 306 307 303 293 284 288 286 284 287 291 290 292 290 289 290 288 290 288 290 288 287 287 285 286 285 286 285 287 282 284 281 283 285 285 287 287 290 291 290 290 286 289 290 296 284 281 282 285 287 288 290 291 292 290 287 287 286 286 284 283 280 278 279 281 281 280 279 277 275 286 295 299 303 308 309 310 311 311 311 312 313 314 315 316 317
291 291 294 305 307 303 290 281 282 284 286 289 289 288 291 289 288 287 287 289 288 288 286 286 286 289 286 290 288 286 289 278 285 286 284 286 284 289 289 289 292 290 289 287 287 292 284 284 283 279 278 281 284 286 287 289 290 285 284 285 287 286 286 285 283 282 281 279 282 278 275 276 288 297 298 302 307 307 308 309 310 310 311 312 314 315 316 318
291 294 294 297 303 298 285 287 284 283 284 284 285 284 285 287 290 289 288 287 291 290 289 287 289 291 289 290 289 290 290 287 282 287 287 288 287 290 290 290 293 291 293 295 302 295 287 284 283 277 275 274 274 275 279 282 285 284 285 285 285 287 285 285 282 281 279 281 282 279 274 281 287 297 298 301 305 305 307 308 310 311 311 312 313 314 316 318
290 282 287 292 296 295 291 293 288 285 283 283 282 285 286 284 288 290 290 288 289 289 289 289 291 291 288 288 285 286 287 291 288 286 286 285 287 290 291 291 292 292 297 301 301 296 288 289 285 282 279 279 279 282 286 285 284 283 284 285 285 286 286 286 281 279 280 278 280 281 283 285 292 295 297 300 305 306 306 309 310 311 311 312 313 314 316 317
291 282 284 283 290 291 285 287 285 286 283 287 281 285 282 284 286 287 294 287 292 290 289 289 289 287 287 287 283 285 287 288 290 288 287 287 288 290 290 291 292 295 301 299 301 294 290 285 286 285 285 285 284 286 286 288 284 283 285 284 284 285 285 285 282 280 283 283 279 281 285 291 291 294 297 300 304 306 307 309 310 311 312 313 313 314 313 317
284 288 290 292 285 283 284 284 285 285 286 286 283 285 283 283 284 283 288 291 291 292 283 288 288 288 289 286 286 280 285 287 287 283 289 290 291 294 291 291 291 297 300 296 299 293 289 284 286 286 286 287 288 288 287 288 286 285 285 284 284 285 285 285 283 282 285 282 279 284 287 291 292 296 300 302 306 307 308 310 311 312 313 313 314 314 315 318
291 290 290 294 284 287 286 287 287 285 284 285 284 285 283 283 284 287 287 286 286 288 288 279 283 287 288 288 286 284 286 281 278 288 288 289 290 290 287 289 293 294 296 294 296 295 291 283 287 289 288 290 289 287 288 288 286 287 286 285 285 285 285 286 284 283 287 285 283 287 289 291 293 297 301 302 304 305 307 311 313 313 313 314 314 314 316 318
285 284 284 290 289 287 288 288 286 285 284 288 284 285 284 284 284 287 288 288 284 289 290 284 288 291 292 292 289 287 289 288 287 284 291 291 290 290 290 291 289 295 295 294 296 296 291 284 292 288 284 288 289 290 287 288 287 285 286 286 285 285 285 287 286 286 288 288 289 290 292 292 293 297 302 304 306 309 310 311 312 313 314 314 315 316 318 318
291 293 292 286 283 286 289 288 286 286 285 285 284 286 286 287 287 291 292 292 289 288 290 289 292 291 293 294 293 292 293 293 292 292 294 294 288 294 292 292 293 290 293 293 293 293 292 286 289 285 282 285 288 287 286 286 287 285 284 284 285 285 285 285 286 287 287 286 287 289 290 290 293 303 302 304 307 309 309 309 310 312 314 314 316 318 318 317
293 295 294 290 283 289 286 288 288 288 284 286 285 286 286 288 291 293 288 293 292 293 293 293 293 293 292 292 291 294 297 297 297 298 298 298 299 297 299 298 296 290 290 292 292 289 289 286 284 283 282 280 287 287 285 285 284 282 281 284 286 285 286 287 288 290 289 290 288 286 290 294 297 302 303 303 305 305 306 309 310 311 313 315 317 318 318 317
Wind_Speed
14 14 14 14 14 14 15 15 16 15 14 14 14 15 15 15 14 14 14 16 16 17 17 17 17 18 18 19 19 19 17 9 12 12 11 15 10 16 16 13 7 5 5 1 2 2 4 3 1 1 2 3 3 2 3 1 1 3 4 4 5 4 7 6 9 8 3 4 4 3 2 3 4 5 4 2 6 2 3 5 2 6 6 6 7 15 17 16
14 14 14 14 14 14 14 14 14 15 15 14 15 15 15 16 16 14 14 16 16 17 16 16 17 18 19 18 19 20 14 9 12 13 16 17 12 16 17 18 15 11 2 3 1 1 0 2 1 3 3 2 0 3 4 2 4 5 2 4 12 6 6 7 3 6 3 6 5 0 2 1 4 3 4 2 0 3 2 2 4 7 7 12 14 15 16 16
15 15 15 14 14 14 13 13 13 13 14 15 15 16 16 16 17 17 16 15 16 16 16 17 16 17 18 19 19 19 11 11 8 11 9 5 4 10 16 19 17 13 6 4 2 4 5 2 1 1 2 3 2 5 4 4 6 5 4 8 10 4 4 4 4 6 5 2 4 2 3 2 7 2 2 1 3 0 6 6 3 5 10 12 13 14 15 14
15 15 15 15 15 14 14 14 13 12 13 14 14 14 16 16 16 16 17 17 17 17 16 16 16 16 17 19 18 13 6 6 6 5 0 8 11 15 18 11 18 12 4 4 4 2 3 1 2 1 0 4 2 3 5 6 5 2 4 6 6 4 3 6 6 6 6 2 4 4 1 5 6 4 1 1 2 2 5 5 8 12 14 14 15 16 15 15
15 14 15 16 15 16 16 16 16 16 14 13 14 14 14 15 15 16 17 17 17 17 16 16 16 15 16 18 18 6 8 4 3 2 4 14 16 19 19 18 10 7 7 2 3 4 1 2 1 1 1 3 2 1 4 4 3 2 11 5 1 3 7 6 8 8 6 6 5 4 2 5 5 4 2 5 7 7 6 8 4 13 18 19 17 15 14 15
15 15 15 15 16 16 16 15 15 15 16 16 14 13 15 14 15 15 16 16 17 17 17 15 15 15 15 17 10 4 1 4 2 2 13 17 18 19 22 17 4 6 5 5 3 1 4 1 3 1 1 2 5 8 2 7 3 8 1 4 5 4 4 2 5 6 5 5 7 6 3 1 2 6 3 4 4 3 3 4 12 18 21 21 18 18 15 12
15 15 16 16 16 16 15 16 15 15 15 16 17 15 14 15 15 15 15 15 16 17 17 16 14 14 15 12 9 3 4 11 7 7 18 18 18 20 22 13 6 4 4 4 3 2 2 2 4 3 1 2 5 3 6 2 4 4 5 1 4 4 8 4 2 5 6 9 10 2 0 2 4 8 1 2 7 5 8 2 10 13 15 18 18 14 14 13
15 15 15 16 16 16 16 15 15 15 15 16 16 17 16 14 14 13 14 15 15 16 16 16 14 13 13 4 7 2 6 10 15 7 18 16 14 17 16 6 12 2 1 3 3 3 3 4 5 3 3 5 3 6 3 6 2 7 7 3 3 3 4 5 6 6 5 6 7 1 2 5 5 6 5 9 9 1 3 10 13 14 15 12 13 15 16 15
15 16 16 16 16 16 16 16 16 16 16 16 17 16 17 16 14 12 14 14 14 14 16 15 14 11 8 2 4 9 10 11 8 12 8 11 12 13 11 8 10 8 3 3 1 3 3 3 4 5 5 5 5 2 2 3 8 4 6 2 4 5 3 4 4 7 7 3 3 5 8 6 9 2 3 12 5 4 6 11 13 14 14 14 15 16 17 17
16 16 16 16 16 16 16 16 16 16 16 17 16 17 17 17 17 13 13 14 14 14 14 15 14 11 4 2 3 4 9 4 3 5 10 11 14 14 11 7 8 9 6 4 2 4 7 5 8 4 1 3 2 5 1 5 5 4 6 8 6 6 5 5 6 6 5 3 2 4 6 6 5 5 6 4 2 8 11 12 12 15 15 14 13 13 14 18
16 16 16 15 15 15 15 16 16 17 17 18 18 17 18 17 17 17 14 14 14 13 13 15 13 6 1 1 0 8 5 7 4 9 12 14 15 11 10 10 7 6 5 6 5 5 7 4 3 0 1 5 1 3 2 3 3 6 3 1 7 9 8 6 5 7 1 4 5 6 8 6 3 3 6 5 5 10 16 14 15 14 14 13 16 14 12 11
16 16 16 16 16 15 15 15 16 17 17 19 18 18 17 17 17 17 16 14 14 13 12 13 15 4 5 6 6 12 3 2 11 10 14 14 12 8 9 8 7 6 5 6 7 4 5 5 3 1 5 1 6 1 5 3 1 2 4 7 5 5 6 6 9 7 3 5 3 7 4 6 1 5 7 3 7 11 17 16 16 13 14 16 14 11 8 9
16 16 16 16 15 16 16 16 17 18 18 19 18 18 17 17 16 16 15 14 12 12 12 12 10 1 2 10 15 19 12 15 18 18 16 12 11 9 8 7 9 8 8 7 6 6 3 5 4 5 6 0 1 3 1 4 2 1 1 3 4 5 6 8 3 4 5 4 4 6 5 6 5 7 8 4 12 13 14 13 13 12 12 10 11 10 10 10
16 16 16 16 16 16 16 17 17 18 17 18 19 18 18 17 17 15 15 14 14 13 11 12 6 1 4 11 9 3 6 7 13 15 16 8 8 9 3 6 7 7 5 7 11 9 7 3 6 7 2 3 3 4 8 3 2 1 3 4 4 3 6 3 5 4 6 5 7 7 8 7 6 9 9 4 11 16 15 12 12 12 12 11 10 11 12 13
17 17 17 17 17 16 16 18 17 17 18 18 19 19 19 18 17 16 15 14 13 12 12 9 1 2 4 10 8 10 17 8 8 15 10 7 7 12 4 1 3 5 5 8 5 4 6 4 4 5 4 3 4 5 6 1 2 1 3 6 1 8 4 6 5 7 8 2 9 7 7 10 6 6 5 5 8 13 15 12 13 11 13 11 10 10 11 11
17 17 17 17 16 16 17 17 18 17 17 18 19 20 20 19 17 16 16 13 14 13 2 2 2 3 5 12 5 4 3 3 8 9 9 7 7 10 7 8 8 10 6 5 7 6 5 4 4 5 2 0 5 4 2 3 2 2 6 1 6 4 5 2 7 7 11 5 2 13 4 1 4 9 2 4 11 13 15 12 12 14 14 12 10 10 8 8
18 17 17 17 16 17 18 17 18 18 19 16 18 18 18 18 18 16 15 14 7 3 3 1 2 3 4 4 4 6 2 4 5 2 1 7 8 8 2 2 2 6 4 6 5 4 2 4 2 3 4 5 4 5 4 7 4 4 0 4 3 7 3 6 5 3 7 9 4 6 6 4 2 3 1 6 13 14 14 13 13 13 12 11 9 9 10 8
18 18 18 17 17 17 17 19 18 18 18 15 15 14 16 20 21 16 7 2 1 1 2 2 3 4 10 9 11 3 3 4 6 8 12 9 11 7 5 2 3 3 4 4 2 4 2 3 3 5 4 7 7 8 12 15 10 4 3 5 3 0 7 8 6 4 6 5 7 5 6 6 5 4 2 6 11 16 16 14 14 14 12 10 9 11 10 10
19 18 18 17 17 16 18 17 18 19 17 15 13 17 18 15 4 2 0 1 3 1 1 4 6 6 7 1 2 5 4 8 12 9 5 1 2 5 3 2 1 1 1 3 3 8 2 1 2 3 13 12 13 12 8 1 8 6 4 5 3 6 6 6 5 3 7 3 5 6 6 6 6 4 1 4 9 16 17 14 12 12 11 10 9 10 11 11
19 19 18 17 17 16 17 17 17 18 18 8 6 7 5 6 4 2 1 1 5 4 4 1 10 7 14 18 7 1 12 7 7 2 6 4 2 3 3 2 2 1 2 6 2 8 4 8 11 15 11 10 6 8 6 4 2 6 4 2 4 3 3 2 2 4 2 3 4 6 5 6 6 7 3 4 5 8 13 13 10 10 11 11 10 12 14 13
19 19 18 18 17 17 17 18 17 16 19 3 3 3 4 4 5 4 4 9 8 9 11 13 11 12 12 14 10 8 9 9 2 11 11 5 8 5 3 6 2 5 6 2 4 2 8 9 13 6 5 8 8 7 6 6 6 2 3 4 5 4 5 3 3 3 1 4 1 4 5 7 6 4 4 4 8 12 15 13 9 12 12 11 11 11 14 12
19 19 18 18 17 17 17 18 17 17 9 1 2 1 2 3 2 2 1 8 6 13 13 16 11 12 13 20 15 5 6 7 17 14 8 8 3 8 2 7 6 9 3 3 2 1 11 15 7 3 5 5 5 8 8 9 8 5 4 2 2 5 2 5 4 4 0 2 6 2 4 6 4 3 4 8 9 10 15 19 19 16 14 12 10 11 11 10
18 19 18 18 17 17 17 18 17 12 1 2 1 1 2 4 1 2 4 7 14 8 14 13 12 15 17 17 6 5 7 8 8 10 2 0 4 9 6 8 8 5 5 7 10 5 9 7 7 7 4 7 4 8 9 7 5 5 3 4 4 3 4 3 3 1 1 4 1 3 5 5 1 3 2 3 3 2 4 8 13 17 19 17 17 18 16 14
18 18 18 18 17 17 19 19 14 3 1 3 4 4 3 1 1 3 2 4 9 6 10 10 12 11 14 13 3 12 11 5 5 14 5 3 2 6 4 8 7 6 10 10 10 7 4 2 6 8 5 6 6 7 10 8 8 3 5 3 3 3 1 3 2 1 2 1 3 4 3 4 0 2 1 3 1 4 3 2 4 5 6 4 2 6 10 15
20 18 18 17 17 18 19 17 3 2 3 5 3 3 4 3 2 3 1 4 4 7 4 7 5 5 11 3 2 5 8 7 12 6 2 3 6 6 7 3 4 10 9 7 4 5 7 6 9 9 9 7 6 8 11 9 6 5 4 6 5 3 6 2 2 2 3 2 1 6 1 6 4 7 10 4 1 5 2 5 8 9 8 9 12 12 9 10
20 20 20 18 18 17 16 6 1 2 8 5 3 1 1 0 2 2 1 2 7 3 2 3 5 3 4 3 7 5 2 8 9 11 8 4 2 2 3 6 6 11 10 7 6 3 4 3 9 13 10 9 7 5 6 10 7 5 6 8 7 5 4 1 2 2 1 2 2 1 9 6 3 5 6 3 3 6 3 7 8 7 9 11 12 11 14 12
21 21 20 20 18 16 6 2 2 4 4 3 2 1 1 2 2 1 1 2 4 1 2 0 3 1 3 4 9 8 2 7 7 10 10 10 6 3 6 7 4 1 4 2 1 8 7 11 7 10 11 11 9 10 6 10 8 5 3 10 9 6 5 3 1 3 3 2 2 1 5 5 3 6 4 3 5 6 7 9 11 8 9 9 8 10 10 10
22 22 23 22 20 13 6 6 7 5 6 6 0 1 1 1 1 1 1 3 2 2 3 3 3 1 3 5 10 8 6 3 1 4 14 7 6 2 2 4 6 8 8 8 14 1 11 10 9 11 12 10 12 5 5 9 7 2 4 9 8 9 7 3 2 2 2 1 9 5 0 0 3 4 2 6 6 8 11 12 13 12 10 10 11 11 13 13
24 24 25 23 20 19 9 4 2 7 5 3 1 2 0 1 1 1 1 3 2 1 1 2 5 1 3 7 9 9 5 1 1 1 9 6 8 2 3 5 2 7 5 11 6 1 5 10 9 8 8 11 4 5 6 10 6 5 4 5 3 3 3 6 6 6 2 2 7 7 3 3 5 2 4 5 8 10 11 13 14 14 14 13 11 10 11 10
26 26 25 23 16 6 2 2 7 9 5 4 2 1 2 1 0 1 1 4 1 3 1 3 3 6 2 6 6 5 7 4 3 2 6 5 8 4 3 0 1 4 8 6 5 5 3 7 7 7 9 5 5 5 6 7 6 4 5 2 1 1 1 2 3 3 2 4 8 7 5 5 5 5 9 9 11 18 11 6 8 11 11 11 12 13 12 11
26 26 25 22 9 3 3 4 9 8 7 4 0 1 1 1 0 1 3 2 0 1 1 3 3 2 1 0 3 4 7 6 6 3 1 4 4 6 3 1 1 1 3 5 8 11 6 5 7 4 7 5 7 4 4 6 6 5 3 5 1 7 2 1 1 2 3 5 8 4 7 8 6 4 7 14 13 9 14 18 19 18 18 15 14 12 11 10
26 28 27 16 9 4 5 4 4 2 2 2 3 1 2 1 0 2 4 0 5 0 0 2 2 2 2 1 3 2 4 2 6 1 3 6 6 8 8 6 7 9 7 11 10 9 10 7 3 5 8 11 8 8 5 7 4 7 5 6 10 2 3 4 3 4 5 6 6 2 6 1 7 9 12 19 18 9 13 16 20 20 19 17 14 13 10 9
27 26 31 13 5 5 8 8 1 1 3 2 2 2 1 2 4 5 3 2 2 1 1 2 5 2 4 6 5 4 4 4 2 6 2 1 7 6 4 4 2 1 7 9 8 9 5 2 4 7 6 10 12 12 8 8 9 9 10 8 8 5 5 4 1 1 2 5 9 3 1 4 4 8 9 13 17 18 14 13 14 17 19 18 15 12 10 10
27 27 13 6 4 7 4 4 6 1 2 1 3 2 1 0 5 2 2 3 5 1 3 3 2 5 6 5 4 3 2 2 2 4 6 2 6 7 5 6 6 2 4 7 9 10 6 6 10 11 8 11 13 12 11 5 8 8 4 9 6 4 3 4 2 5 7 8 4 2 4 5 4 5 3 13 13 10 3 3 5 5 4 5 8 9 9 10
30 19 8 5 4 6 8 5 4 4 3 1 3 1 1 5 2 2 2 2 1 4 6 2 6 5 6 5 4 4 3 2 8 5 6 3 6 3 7 8 7 2 1 11 4 3 11 4 4 9 1 12 11 7 6 6 7 4 4 7 5 9 5 2 6 6 5 4 2 1 4 5 6 1 6 2 3 8 8 8 10 10 10 11 11 12 11 10
17 8 6 3 2 2 7 5 6 6 5 3 4 1 5 4 2 1 2 1 3 3 7 12 9 4 2 3 2 2 4 1 7 5 1 5 3 6 3 2 4 7 3 6 3 6 4 4 3 15 6 15 12 10 7 7 8 5 8 9 7 5 4 2 1 0 1 2 7 1 4 2 7 3 5 5 6 5 9 11 11 12 12 12 12 12 11 11
9 10 4 1 2 2 6 7 6 6 4 3 2 4 5 3 6 4 2 3 2 2 6 4 2 1 2 3 1 4 2 2 4 6 2 3 2 3 3 2 5 5 7 2 5 2 9 3 5 13 12 7 12 12 7 7 6 6 8 6 2 3 3 3 4 2 1 5 5 1 6 2 2 5 3 4 4 4 9 12 12 12 13 13 12 12 13 13
10 8 6 4 3 4 7 8 8 4 3 4 5 7 3 4 2 6 2 1 2 4 4 1 1 0 1 0 2 5 4 5 6 6 3 3 3 4 5 2 6 7 8 5 1 2 2 4 4 10 11 5 6 11 7 5 6 7 9 6 9 7 6 2 2 2 1 4 2 1 1 2 6 3 1 3 8 10 9 9 11 12 13 14 12 13 12 11
5 3 4 2 4 6 6 9 7 6 3 4 4 5 3 7 4 5 5 4 1 4 5 2 2 0 1 2 1 1 6 4 5 4 4 3 1 4 8 3 4 7 5 8 1 2 1 2 1 3 12 4 4 9 11 11 6 1 4 10 4 6 3 3 6 3 6 3 3 4 2 5 6 5 11 10 11 11 11 12 15 17 18 15 13 13 14 13
6 3 1 3 4 5 7 6 4 4 3 4 3 6 2 6 8 8 4 6 3 3 3 3 4 2 1 3 0 1 0 3 5 4 5 1 5 1 5 8 2 5 6 10 5 1 3 1 4 4 10 6 6 7 13 12 11 8 5 5 2 3 2 4 1 2 3 4 3 4 2 4 5 6 10 13 13 14 17 17 14 15 15 14 13 14 13 13
4 2 1 2 4 7 6 3 3 5 4 4 5 6 8 7 2 3 5 9 5 7 6 4 2 2 2 5 4 1 1 1 1 1 5 2 7 0 4 7 6 1 5 4 4 2 1 1 2 4 6 9 8 5 6 10 11 9 8 6 6 7 4 6 7 1 2 2 3 3 4 7 9 2 8 11 13 14 16 16 16 15 14 14 13 13 14 13
4 3 2 2 4 4 5 2 3 2 3 7 5 2 5 6 7 8 7 6 10 6 6 5 7 6 3 3 3 1 1 1 1 1 3 4 4 4 3 8 8 3 4 5 6 3 3 1 1 4 9 10 3 5 6 10 9 7 10 6 7 4 6 5 4 4 1 1 4 3 3 6 3 2 4 4 8 14 13 10 8 10 14 13 12 12 12 13
5 5 2 4 3 3 2 3 3 3 4 4 4 9 9 9 5 4 7 2 4 5 4 6 4 3 3 3 3 3 1 1 1 2 3 4 3 9 5 10 7 7 1 2 2 2 4 3 3 2 1 0 0 1 6 9 9 4 3 4 7 6 6 7 6 6 7 1 1 1 1 4 3 1 4 4 4 2 2 6 8 7 7 10 11 13 13 11
4 4 3 1 2 1 2 3 3 4 5 8 8 12 8 8 7 7 5 3 4 2 3 2 2 8 3 4 2 3 1 1 3 3 3 2 2 8 10 7 8 7 7 5 6 5 3 3 2 1 4 3 4 3 3 2 5 4 4 3 7 6 5 3 5 1 3 5 7 8 5 3 4 4 4 2 6 5 4 3 7 8 8 9 11 12 11 12
4 3 4 1 2 3 2 2 3 6 7 10 10 12 10 4 5 9 7 7 2 4 2 3 2 2 3 4 4 3 6 5 1 3 3 1 3 3 9 11 12 9 11 6 2 5 5 3 4 2 9 10 10 10 11 11 13 3 3 6 5 10 7 4 6 0 3 1 4 3 3 8 7 5 2 4 6 4 4 5 5 7 9 11 11 11 11 12
3 5 2 2 2 2 4 3 4 4 7 7 9 6 4 5 2 3 5 7 7 5 4 4 4 2 1 2 1 2 4 5 7 2 0 1 2 3 7 12 14 12 12 15 11 4 1 1 3 5 6 7 3 1 1 5 4 6 5 8 4 5 7 5 5 4 5 3 4 5 4 2 3 2 1 5 8 10 9 8 11 11 9 6 6 10 12 12
2 2 4 7 3 4 4 2 2 2 3 3 5 3 4 2 6 5 2 1 1 2 2 4 2 0 1 2 2 3 6 7 11 6 4 3 3 4 4 13 13 14 20 15 14 1 1 3 6 5 7 9 7 4 5 8 6 5 7 5 2 6 7 6 6 7 5 8 3 3 4 4 7 3 5 5 6 7 7 8 9 8 9 11 10 8 7 7
3 1 1 1 4 6 9 2 1 7 11 4 4 2 5 5 2 2 2 4 3 2 0 1 1 3 4 3 1 1 3 3 3 1 3 1 6 4 1 8 9 12 16 8 2 3 3 5 4 4 5 6 7 6 8 9 7 7 7 6 4 4 6 6 6 5 6 4 7 3 4 4 5 8 9 12 15 15 13 11 7 8 9 9 10 11 10 9
1 3 4 5 6 6 4 13 13 10 11 4 3 2 4 4 8 1 2 2 3 2 3 1 3 4 6 7 3 3 3 1 2 1 1 3 4 4 2 5 3 5 5 4 2 3 0 6 3 1 3 2 4 6 6 11 6 9 8 6 7 8 7 7 5 4 9 3 4 3 6 6 7 6 5 4 2 2 4 7 9 11 12 11 11 11 11 10
5 6 5 4 5 10 10 6 5 8 6 3 2 3 3 3 8 5 4 5 1 2 3 0 6 5 6 7 9 3 1 2 3 1 4 1 7 1 0 4 5 4 6 3 4 1 5 5 3 0 2 3 2 4 5 11 9 6 3 4 6 6 4 0 1 1 0 2 3 3 4 5 3 2 1 0 5 7 6 8 9 9 10 12 12 12 12 12
4 3 4 9 10 5 6 4 7 8 5 1 2 5 3 4 6 10 7 4 5 4 5 5 3 4 1 2 3 5 4 6 8 11 8 3 4 1 3 1 3 5 1 1 1 1 1 3 1 1 3 1 4 4 4 5 8 8 5 4 6 7 5 3 2 5 4 3 4 4 2 5 2 1 4 3 6 9 11 8 8 8 9 11 13 14 14 14
4 5 5 5 5 6 8 8 8 5 4 4 1 7 3 11 12 11 5 4 9 8 5 4 3 1 4 2 1 4 3 4 8 9 7 6 7 5 4 3 1 2 4 1 1 0 1 0 1 1 5 1 2 3 8 7 6 3 3 6 8 3 1 1 2 1 2 9 8 7 8 6 5 3 4 1 4 5 5 6 6 5 8 11 13 14 14 15
Wind_Direction
344 343 345 342 340 338 339 337 335 333 332 331 328 328 324 323 311 315 314 318 322 324 327 328 332 329 327 326 329 330 331 320 313 307 302 256 228 235 244 241 234 216 224 184 288 5 329 344 256 271 106 120 240 149 233 177 185 113 196 159 223 181 195 196 193 185 201 181 248 274 219 195 290 321 287 68 24 80 80 50 352 40 35 92 98 113 123 130
338 338 337 337 336 334 334 334 334 332 331 328 328 323 324 324 322 315 312 314 318 320 326 326 330 333 331 327 329 330 328 314 297 287 259 262 255 249 245 250 250 227 231 306 207 201 267 320 287 143 133 180 231 200 152 244 154 183 166 161 223 178 226 164 178 204 138 225 229 344 317 47 270 17 298 18 342 140 119 21 39 60 66 88 99 119 128 137
338 334 335 333 330 330 327 328 327 328 327 328 328 328 325 322 322 319 315 313 314 319 319 322 331 333 333 330 327 332 327 306 302 269 265 336 310 258 251 247 240 233 203 232 213 186 182 176 41 92 186 185 225 202 181 239 160 222 124 204 227 204 231 218 193 223 206 229 280 291 285 3 282 339 277 327 197 264 188 148 46 102 127 118 124 130 139 144
334 334 333 331 331 327 326 323 323 320 323 322 323 323 320 321 317 318 314 315 314 314 314 320 328 334 333 330 334 328 326 285 268 230 324 9 7 1 355 270 234 223 184 233 252 205 207 231 343 170 179 198 269 189 171 222 162 225 194 208 222 186 178 237 232 235 250 225 273 268 350 339 300 279 295 216 68 252 261 235 173 161 145 136 142 146 149 153
332 334 333 330 330 330 325 329 329 325 320 319 320 320 319 316 317 315 316 313 316 312 313 315 325 333 336 331 329 340 309 350 257 147 1 5 7 4 353 347 231 183 182 211 200 216 136 115 71 347 163 219 249 196 237 236 202 134 222 206 181 159 217 230 218 232 236 256 257 278 344 280 298 338 285 260 236 233 213 233 178 148 142 144 152 160 157 156
334 334 332 330 330 328 326 327 326 327 322 320 319 316 316 316 313 314 314 314 314 315 313 316 320 331 335 333 319 316 265 205 317 286 343 2 10 3 353 354 159 140 147 207 215 122 147 128 130 150 239 171 211 201 258 217 172 235 253 206 206 194 192 233 206 220 202 246 248 264 224 268 2 292 261 255 213 232 244 252 139 158 157 157 150 152 157 131
333 332 332 330 328 330 330 329 329 326 327 319 319 317 312 312 312 313 313 319 317 318 316 314 319 328 335 335 309 258 223 273 317 269 339 349 9 2 357 0 78 111 157 186 205 180 162 180 145 200 153 239 270 204 253 229 220 237 243 130 227 199 225 244 232 211 216 217 246 200 341 316 313 311 240 291 258 281 293 326 127 136 137 145 152 149 115 103
333 334 333 332 331 330 331 329 327 327 325 323 321 319 313 309 309 309 312 312 317 317 318 312 315 322 339 348 334 305 258 252 250 331 314 348 5 358 355 1 17 33 293 220 159 168 118 161 171 155 221 176 224 178 221 244 221 219 245 235 264 217 230 239 250 262 231 237 246 252 233 240 232 248 338 288 285 354 75 101 117 134 133 128 112 105 109 110
335 335 333 332 330 330 328 328 327 325 326 326 322 319 315 312 304 304 306 312 313 317 315 312 308 326 351 326 316 311 253 248 284 283 331 354 355 352 358 0 358 16 323 325 219 181 143 231 187 188 212 224 243 285 269 169 261 199 231 235 239 247 260 237 251 252 255 254 228 274 268 261 250 2 270 256 288 133 112 101 123 123 114 110 121 126 129 134
336 334 332 330 329 328 327 326 324 324 324 323 323 321 319 314 310 300 301 305 310 314 313 310 306 323 2 2 324 284 262 279 273 7 349 345 342 343 339 355 358 346 358 329 320 184 188 208 180 217 199 278 232 241 196 181 232 196 200 221 233 250 251 262 239 258 255 238 207 211 261 267 264 142 281 299 157 131 98 95 102 116 119 130 129 130 139 144
335 333 332 331 328 328 327 325 324 322 323 321 321 321 317 314 309 306 299 299 306 310 311 308 310 322 99 78 277 258 274 306 357 340 332 329 325 331 319 324 339 325 322 301 267 211 226 205 190 15 159 223 38 271 192 224 214 261 218 265 239 245 247 257 265 256 282 285 207 195 245 247 291 136 225 244 137 122 111 120 126 127 132 130 142 147 150 138
338 337 334 333 331 330 328 325 323 322 321 322 320 317 313 312 310 305 300 300 301 306 309 309 308 297 252 249 221 231 312 319 313 312 309 312 301 292 291 289 291 280 288 284 286 264 236 221 207 211 202 121 239 295 285 252 355 248 228 250 258 263 265 242 239 250 165 260 189 182 245 274 222 215 227 213 125 122 121 132 136 127 138 147 147 137 126 129
337 336 334 333 331 330 326 326 326 325 325 324 321 314 311 309 309 306 301 298 299 299 303 305 307 242 326 279 240 250 289 296 299 297 292 281 288 276 267 270 265 257 246 254 266 266 223 208 204 215 246 30 243 161 264 337 270 278 217 177 261 270 265 249 230 233 188 237 160 127 252 240 250 244 248 109 132 122 120 126 129 135 145 146 138 132 134 156
335 334 335 333 331 328 328 327 328 327 326 324 320 314 311 309 303 301 298 294 294 295 300 302 299 253 259 258 270 275 271 265 271 283 272 303 302 293 271 257 258 259 241 240 254 260 259 221 193 222 275 191 241 317 349 3 312 180 241 141 202 185 251 270 194 202 214 193 171 160 240 268 271 271 256 95 148 134 129 127 138 141 142 150 151 147 157 178
334 333 332 332 331 329 329 329 326 325 325 323 320 317 311 305 299 297 295 295 294 295 293 299 269 330 269 270 286 265 248 253 268 258 267 276 281 305 297 291 249 245 240 226 243 224 225 195 176 203 247 201 249 317 310 357 344 259 134 229 209 190 279 279 239 193 200 277 161 151 236 240 242 254 254 126 155 132 131 138 145 151 153 157 156 158 168 177
330 330 330 330 329 329 330 328 321 323 325 324 319 315 310 302 299 294 292 285 286 285 325 344 241 182 279 288 268 314 287 238 259 246 254 204 232 239 268 299 301 291 272 264 218 239 234 164 180 184 234 142 175 151 301 2 288 288 178 266 201 146 236 324 248 195 197 198 198 181 213 305 289 246 236 162 135 139 140 144 150 160 161 157 160 167 164 156
329 327 328 326 326 326 325 326 322 329 323 326 319 314 310 302 295 290 288 291 281 259 157 239 248 171 249 214 328 308 285 240 255 306 303 192 207 224 257 294 301 312 297 271 247 245 231 162 202 143 199 203 141 133 179 257 281 257 74 182 197 175 186 223 299 264 197 186 212 220 178 220 244 268 56 152 144 140 148 153 157 166 169 165 158 162 167 171
328 328 326 324 324 324 324 328 326 329 325 327 322 314 307 299 291 292 295 304 99 151 188 210 292 301 261 256 266 272 327 312 336 303 294 261 192 210 200 208 242 268 303 321 295 154 178 184 167 208 141 191 171 169 187 213 191 166 150 162 262 234 193 199 184 253 145 209 193 182 200 220 260 301 6 157 150 149 153 161 163 169 170 162 163 167 173 177
328 328 326 324 323 326 321 328 328 328 327 331 323 313 301 298 323 114 101 92 74 7 4 210 163 170 229 273 30 321 282 327 306 284 284 50 165 191 182 218 310 339 320 157 266 166 170 120 135 142 203 190 199 192 183 162 136 173 167 174 166 179 221 204 226 276 159 131 192 162 187 216 247 263 335 141 162 156 165 165 166 170 166 161 165 168 174 186
331 328 327 326 325 324 323 324 327 328 328 337 344 334 0 21 358 349 36 176 225 215 229 129 206 267 313 290 285 340 322 316 310 241 323 299 149 159 201 154 159 195 200 191 203 198 127 185 196 205 201 193 175 187 171 254 130 159 171 142 199 188 281 274 275 258 173 115 205 190 200 214 212 214 190 165 136 147 156 164 169 172 171 172 175 177 178 188
329 330 329 328 327 323 321 324 325 326 328 1 12 23 23 350 342 312 310 254 230 235 248 251 212 222 240 272 286 346 348 314 252 287 271 277 281 135 206 150 160 188 209 209 167 264 148 204 222 202 187 184 175 153 157 215 244 149 155 189 235 178 227 234 211 264 271 179 290 195 192 236 221 210 170 150 148 161 167 166 170 177 182 182 174 174 184 188
329 328 331 329 327 324 322 323 324 323 339 97 82 111 244 227 216 338 318 297 208 222 233 240 241 248 250 255 259 281 292 284 306 290 281 171 204 179 199 169 170 199 123 211 306 200 197 213 190 172 174 141 147 158 173 194 220 227 204 192 219 252 237 281 267 291 319 132 254 155 194 252 266 184 171 178 178 183 175 175 181 175 180 181 178 180 180 179
329 328 328 329 325 321 322 322 322 328 48 29 82 209 234 238 330 342 274 270 284 204 235 234 235 236 246 257 246 164 211 226 257 282 252 14 187 200 158 180 182 156 154 192 198 180 209 215 160 178 140 145 149 167 174 195 209 205 195 215 216 239 153 282 286 302 225 153 230 189 212 289 358 73 160 245 252 258 238 206 182 177 176 180 184 185 183 180
330 328 327 326 323 323 323 325 322 40 13 296 262 219 241 255 324 341 205 275 299 269 210 225 220 230 235 239 190 188 206 217 200 265 244 202 175 185 198 192 164 176 202 194 209 210 212 149 152 160 177 156 163 178 176 184 216 202 185 172 207 250 242 153 236 303 331 331 99 69 29 331 290 130 244 262 339 125 179 123 163 186 192 179 147 190 196 182
328 327 326 323 321 321 327 324 12 350 319 295 230 244 254 250 212 204 224 282 251 271 191 255 194 234 240 216 199 160 202 241 222 239 285 171 196 164 221 164 164 208 202 173 193 242 248 260 153 161 184 185 160 180 195 160 195 228 220 186 201 178 234 276 333 18 22 340 298 168 310 268 257 208 202 164 103 158 181 174 185 179 174 171 186 195 188 199
329 328 328 325 323 324 328 336 287 326 331 292 228 214 295 139 206 219 138 282 288 271 175 319 141 259 140 198 146 210 202 246 216 232 229 249 256 256 164 210 183 202 185 157 194 217 206 237 181 178 180 188 192 193 195 164 184 173 251 178 207 206 214 171 252 70 60 184 279 137 183 258 324 230 220 200 196 172 139 198 194 188 184 185 192 188 187 187
331 329 326 324 322 327 325 289 288 340 334 293 239 203 256 165 171 170 36 222 267 3 271 179 68 237 190 188 168 137 97 270 193 195 201 227 232 177 205 189 156 216 155 153 144 230 169 216 195 183 182 187 194 205 204 167 144 217 212 172 192 205 212 165 120 144 227 246 282 170 161 212 292 255 238 171 190 183 193 202 203 201 194 199 191 186 188 188
329 326 325 320 315 313 272 288 301 287 235 242 103 134 118 124 124 21 227 330 274 124 333 315 224 21 253 154 167 172 207 9 106 203 190 169 197 283 161 197 178 179 170 174 204 85 171 199 194 192 188 191 206 182 133 159 166 196 160 149 183 195 202 160 165 239 241 38 284 334 47 67 253 270 140 151 182 206 212 205 202 200 200 206 202 196 196 195
325 324 321 319 312 304 287 230 228 251 226 223 173 0 147 107 133 72 3 267 177 118 55 193 274 316 260 150 183 210 271 310 41 76 165 146 187 179 133 238 202 176 195 199 187 244 185 203 192 191 184 202 153 165 158 157 161 233 144 137 131 149 165 183 186 201 263 157 258 258 179 188 277 251 170 168 211 218 217 206 201 200 199 199 200 200 200 196
323 321 319 317 312 283 233 194 221 237 263 273 315 30 87 57 338 15 349 266 59 279 161 286 335 320 13 143 212 233 271 287 273 36 163 157 193 219 256 101 147 171 196 192 222 231 198 172 170 189 198 174 153 187 155 166 192 129 160 197 47 44 188 162 114 130 75 235 251 235 184 165 264 222 191 164 209 206 194 184 199 203 205 202 199 193 192 190
321 318 318 315 293 290 178 249 247 232 239 268 40 92 89 37 150 148 243 258 237 268 168 299 327 317 24 73 245 226 238 263 295 253 172 175 146 185 224 103 203 69 120 166 201 242 269 190 185 195 132 150 151 190 185 176 187 150 150 172 246 294 11 70 343 56 198 259 260 230 186 180 206 280 218 225 227 209 174 187 192 197 202 197 193 191 190 184
319 317 315 313 269 214 208 231 271 119 142 200 132 74 84 3 305 178 232 28 270 220 4 278 274 343 315 194 273 216 193 206 237 242 192 186 163 180 204 190 163 147 179 178 190 214 246 242 197 139 170 156 167 172 208 202 180 170 142 140 172 269 134 253 138 224 203 200 249 184 147 80 245 219 205 214 224 207 194 198 188 189 195 191 186 183 182 176
317 316 314 304 276 179 218 220 197 33 35 93 86 67 69 112 290 220 261 350 257 128 281 168 262 310 288 309 252 236 203 260 161 223 268 251 145 214 233 201 252 123 180 172 152 181 258 278 215 196 165 183 164 179 174 203 199 164 181 164 156 179 193 208 257 158 303 286 257 257 240 250 241 282 227 218 219 216 204 199 195 189 184 183 179 173 169 173
316 317 308 282 238 215 212 201 218 235 20 30 86 34 43 51 244 256 237 209 251 213 236 229 263 237 226 221 244 163 226 227 204 212 180 224 162 187 222 233 237 272 82 142 171 180 158 219 238 185 205 171 184 190 180 170 148 183 103 149 170 124 155 195 189 175 203 206 267 249 123 228 145 234 293 222 225 214 159 131 136 152 154 153 157 162 161 169
316 310 287 276 247 224 208 177 162 158 109 67 61 112 219 242 259 246 282 295 293 304 275 304 295 290 260 212 242 274 175 169 206 225 184 202 187 184 199 212 216 170 214 144 234 137 216 233 251 191 186 164 188 174 141 119 128 187 145 88 128 213 132 172 202 147 184 221 303 176 194 191 176 314 321 250 126 136 141 131 136 150 157 161 163 171 172 171
313 317 300 255 238 241 169 161 143 138 136 88 102 166 213 214 228 213 252 153 284 286 301 302 267 262 237 247 184 221 209 92 173 204 239 189 209 200 190 196 195 196 194 175 162 168 168 232 220 172 247 173 183 162 194 147 176 201 131 192 203 169 152 49 41 185 82 85 237 186 321 280 301 331 13 11 97 131 136 142 147 153 160 163 171 174 171 175
324 327 339 298 237 156 151 150 148 138 165 150 146 245 220 266 234 271 252 220 206 339 301 306 61 298 169 217 233 169 196 161 170 176 242 194 257 212 176 207 181 182 210 132 163 183 152 235 283 170 209 233 171 173 182 192 140 136 185 214 129 95 106 171 222 352 55 161 241 53 200 241 94 240 352 21 95 143 155 160 162 154 156 170 180 176 176 178
320 307 280 265 303 135 143 146 139 159 178 199 213 247 199 251 248 230 173 256 270 194 261 258 247 191 333 4 246 165 168 148 163 184 231 178 268 186 157 191 207 208 197 203 112 247 116 179 248 192 188 208 175 155 192 227 158 150 182 185 155 210 236 306 97 203 138 184 242 205 311 265 173 238 322 252 181 178 167 157 155 164 168 179 178 181 181 172
290 285 319 10 349 128 141 145 149 157 192 227 242 283 218 227 254 241 216 204 177 280 269 220 237 175 353 329 270 301 164 166 162 171 181 198 169 204 186 165 213 215 182 149 184 264 357 145 265 181 185 170 154 162 193 197 212 157 120 171 171 110 156 130 206 179 124 229 98 262 50 223 212 219 192 205 198 182 165 165 181 178 182 179 177 177 178 176
327 336 303 44 58 97 123 133 131 183 220 240 226 235 250 261 260 264 241 177 251 218 244 263 210 283 208 242 202 348 35 125 153 167 199 177 205 281 171 168 229 200 154 164 206 162 307 139 166 201 183 120 188 196 195 183 172 176 168 185 145 202 212 127 60 132 200 169 179 173 227 279 264 216 177 199 187 184 178 185 186 187 186 180 175 172 175 175
293 243 307 73 102 120 116 127 191 208 242 256 256 268 284 274 277 250 222 197 216 226 246 267 284 235 354 5 334 308 330 70 133 127 198 222 189 161 238 167 199 228 147 180 200 185 250 325 191 180 163 197 210 194 176 176 170 172 166 177 162 139 145 172 242 15 98 107 222 126 231 272 270 206 207 189 188 183 198 185 183 185 175 175 174 173 169 172
308 339 306 96 136 144 115 168 233 223 257 261 252 218 273 283 271 265 260 207 215 246 212 251 248 252 256 225 220 251 248 125 206 159 206 211 226 205 258 181 185 179 144 199 197 212 144 166 90 180 195 197 179 172 180 159 148 157 162 210 181 152 110 112 154 242 28 225 129 156 146 265 243 225 237 220 182 193 192 183 188 176 173 172 170 167 171 176
338 286 294 161 184 155 89 238 226 226 238 256 298 274 265 271 255 278 290 241 227 222 237 227 236 203 230 208 209 238 137 38 188 194 177 213 215 211 230 193 170 178 198 290 130 231 163 268 289 287 49 30 334 130 130 147 134 120 178 132 145 184 171 158 170 183 169 190 93 51 192 252 282 281 282 223 205 223 204 195 164 146 160 165 161 167 169 171
293 293 305 91 195 121 235 278 293 248 263 274 275 280 290 277 278 293 263 238 209 192 220 220 256 222 260 182 254 330 346 40 278 206 299 200 247 224 211 198 173 192 176 220 176 195 165 258 138 173 118 115 76 52 108 164 170 179 171 198 176 157 177 162 102 75 161 221 171 130 203 279 274 313 297 168 141 164 168 127 139 150 162 167 168 169 171 169
274 232 240 268 185 152 224 223 250 284 289 293 300 297 307 271 215 229 246 268 224 252 289 242 239 108 220 195 209 183 241 212 306 268 197 217 240 235 223 188 185 202 204 214 235 159 170 195 138 149 161 164 169 173 186 183 187 181 134 150 167 160 161 116 211 43 173 259 134 138 238 246 270 328 3 147 139 112 127 137 135 157 168 169 166 168 168 171
336 339 298 265 180 179 232 276 268 264 291 305 304 276 271 284 295 273 265 282 226 241 239 280 294 251 228 62 343 234 260 230 189 262 187 266 280 264 203 191 185 204 205 220 231 72 204 109 157 161 165 187 197 217 288 97 102 139 158 132 184 158 162 140 117 114 194 202 182 228 180 255 304 316 301 165 164 165 153 155 157 163 168 169 168 168 173 174
333 65 320 330 300 194 236 222 258 225 263 331 293 336 291 261 295 304 172 292 60 185 228 206 243 147 201 133 229 272 198 233 209 231 286 266 258 255 225 171 191 191 208 216 229 14 309 307 261 187 193 185 195 181 178 123 138 148 129 146 140 139 147 134 146 200 174 99 291 262 201 168 244 240 231 207 194 173 174 169 159 154 166 166 165 161 149 139
10 16 283 22 297 307 326 341 224 289 285 264 254 295 276 300 296 278 306 246 315 292 120 292 203 230 260 198 145 207 219 240 117 262 322 261 285 273 304 169 163 202 204 221 158 181 246 272 263 142 207 208 194 164 154 134 150 147 145 144 145 164 126 152 210 208 142 180 208 245 163 192 246 219 212 201 182 181 181 179 162 144 128 135 149 157 159 148
308 311 273 354 326 290 272 279 297 292 299 275 255 283 284 287 304 199 263 337 326 279 189 252 256 227 233 248 215 246 303 38 24 150 211 264 309 318 48 153 180 167 145 206 208 175 152 251 241 192 182 120 129 141 151 132 143 142 152 173 146 151 173 172 199 189 180 196 202 183 150 236 242 256 228 230 7 37 100 106 119 142 158 155 153 150 148 144
17 344 324 317 244 281 283 290 290 303 307 313 291 268 242 287 297 308 184 204 267 300 97 264 265 250 243 232 189 216 223 146 183 243 231 194 315 301 31 140 132 87 143 177 185 221 179 265 247 93 76 50 1 123 129 133 137 146 132 124 141 160 140 77 96 104 121 88 99 119 151 270 274 228 136 43 106 107 115 142 155 151 150 155 153 150 149 149
313 265 286 310 315 292 294 311 321 314 316 319 320 325 303 263 294 317 308 177 217 201 182 234 278 302 260 249 173 215 194 187 216 216 234 220 262 299 54 326 35 156 100 194 51 258 135 266 56 66 85 24 8 83 75 102 120 130 125 119 120 116 127 188 170 208 146 159 99 106 137 261 259 89 65 79 132 151 159 150 140 153 161 155 154 156 157 158
296 265 285 291 279 301 315 313 308 314 336 348 295 308 305 303 297 303 314 193 208 217 224 244 270 286 289 355 331 280 255 230 248 256 238 231 215 251 244 238 358 161 168 184 136 2 239 147 317 63 82 319 333 109 115 96 72 103 199 196 168 139 139 164 287 271 204 145 114 138 218 221 189 157 110 99 140 152 138 165 145 146 168 164 160 160 162 165